Weather in Novinki

Russia / Nizhny Novgorod Oblast'     56°12′17″N   43°52′47″E
temp.,
°C
wind,
m/s
gust,
m/s
humid.,
%
clouds,
%
prec.,
mm/h
press.,
hPa
HPBL,
m
22 january, sat
sat2200:00−8sse61393100 0.3 1008639
03:00−8sse5129194 0.4 1009425
06:00−11se499471 0.1 1011223
09:00−12ese4109682 0.1 1013237
12:00−8ese499499 0.0 1014342
15:00−8ese489493 0.1 1015327
18:00−12e269877 0.0 101785
21:00−16ese21100100 0.1 101911
23 january, sun
sun2300:00−17se11100100 0.1 102010
03:00−16sse1110092 0.1 10229
06:00−18s1110099 0.0 10249
09:00−18s2110099 0.1 102718
12:00−10s129567 0.0 1029104
15:00−11sse009738 0.0 103010
18:00−17ese1110074 0.0 10339
21:00−19n0010098 0.0 10359
24 january, mon
mon2400:00−21ne11100100 0.0 10369
03:00−22ne11100100 0.0 10379
06:00−22ene11100100 0.0 10389
09:00−22nne11100100 0.1 103910
12:00−11e129798 0.0 103890
15:00−10nne119889 0.1 103711
18:00−8e119796 0.1 103742
21:00−10ese139993 0.1 103665
25 january, tue
tue2500:00−17se1110099 0.0 10359
03:00−17sse1110099 0.1 103429
06:00−18sse2210099 0.0 103229
09:00−20sse2210095 0.0 103122
12:00−11s37905 0.0 1029190
15:00−10se269181 0.0 1027152
18:00−17se229867 0.0 102616
21:00−14sse299635 0.0 1025137
26 january, wed
wed2600:00−11sse399595 0.1 1024220
03:00−15sse259967 0.1 102368
06:00−14sse2598100 0.1 102383
09:00−11se2597100 0.1 1022109
12:00−5sse3796100 0.2 1021311
15:00−4sse369589 0.9 1021333
18:00−11se249876 0.1 102150
21:00−11sse2797100 0.1 1021100